Time,TemperatureF,DewpointF,PressureIn,WindDirection,WindDirectionDegrees,WindSpeedMPH,WindSpeedGustMPH,Humidity,HourlyPrecipIn,Conditions,Clouds,dailyrainin,SolarRadiationWatts/m^2,SoftwareType,DateUTC
2013-12-09 00:02:00,44.0,44.0,-100.00,SSW,212,5.0,14.0,100,0.08,,,0.86,0.000000,,2013-12-09 05:02:00,
2013-12-09 00:43:00,43.0,43.0,-100.00,SSE,167,10.0,16.0,100,0.01,,,0.87,0.000000,,2013-12-09 05:43:00,
2013-12-09 00:53:00,43.0,43.0,-100.00,SSE,167,10.0,16.0,100,0.01,,,0.87,0.000000,,2013-12-09 05:53:00,
2013-12-09 01:02:00,43.0,43.0,-100.00,SSE,167,10.0,16.0,100,0.01,,,0.87,0.000000,,2013-12-09 06:02:00,
2013-12-09 01:42:00,42.0,42.0,-100.00,South,179,8.0,16.0,100,0.07,,,0.94,0.000000,,2013-12-09 06:42:00,
2013-12-09 01:52:00,42.0,42.0,-100.00,South,179,8.0,16.0,100,0.07,,,0.94,0.000000,,2013-12-09 06:52:00,
2013-12-09 02:03:00,42.0,42.0,-100.00,South,179,8.0,16.0,100,0.07,,,0.94,0.000000,,2013-12-09 07:03:00,
2013-12-09 02:42:00,42.0,42.0,-100.00,SSE,167,9.0,14.0,100,0.06,,,1.00,0.000000,,2013-12-09 07:42:00,
2013-12-09 02:52:00,42.0,42.0,-100.00,SSE,167,9.0,14.0,100,0.06,,,1.00,0.000000,,2013-12-09 07:52:00,
2013-12-09 03:02:00,42.0,42.0,-100.00,SSE,167,9.0,14.0,100,0.06,,,1.00,0.000000,,2013-12-09 08:02:00,
2013-12-09 03:43:00,42.0,42.0,-100.00,South,174,10.0,16.0,100,0.06,,,1.06,0.000000,,2013-12-09 08:43:00,
2013-12-09 03:52:00,42.0,42.0,-100.00,South,174,10.0,16.0,100,0.06,,,1.06,0.000000,,2013-12-09 08:52:00,
2013-12-09 04:02:00,42.0,42.0,-100.00,South,174,10.0,16.0,100,0.06,,,1.06,0.000000,,2013-12-09 09:02:00,
2013-12-09 04:43:00,42.0,42.0,-100.00,South,181,7.0,15.0,100,0.01,,,1.07,0.000000,,2013-12-09 09:43:00,
2013-12-09 04:54:00,42.0,42.0,-100.00,South,181,7.0,15.0,100,0.01,,,1.07,0.000000,,2013-12-09 09:54:00,
2013-12-09 05:04:00,42.0,42.0,-100.00,South,181,7.0,15.0,100,0.01,,,1.07,0.000000,,2013-12-09 10:04:00,
2013-12-09 05:43:00,42.0,42.0,-100.00,WNW,283,4.0,12.0,100,0.07,,,1.12,0.000000,,2013-12-09 10:43:00,
2013-12-09 05:53:00,42.0,42.0,-100.00,WNW,283,4.0,12.0,100,0.07,,,1.12,0.000000,,2013-12-09 10:53:00,
2013-12-09 06:02:00,42.0,42.0,-100.00,WNW,283,4.0,12.0,100,0.07,,,1.12,0.000000,,2013-12-09 11:02:00,
2013-12-09 06:43:00,42.0,42.0,-100.00,SW,229,4.0,8.0,100,0.04,,,1.13,0.000000,,2013-12-09 11:43:00,
2013-12-09 06:53:00,42.0,42.0,-100.00,SW,229,4.0,8.0,100,0.04,,,1.13,0.000000,,2013-12-09 11:53:00,
2013-12-09 07:02:00,42.0,42.0,-100.00,SW,229,4.0,8.0,100,0.04,,,1.13,0.000000,,2013-12-09 12:02:00,
2013-12-09 07:42:00,42.0,42.0,-100.00,SSE,167,5.0,8.0,100,0.01,,,1.13,0.000000,,2013-12-09 12:42:00,
2013-12-09 07:52:00,42.0,42.0,-100.00,SSE,167,5.0,8.0,100,0.01,,,1.13,0.000000,,2013-12-09 12:52:00,
2013-12-09 08:02:00,42.0,42.0,-100.00,SSE,167,5.0,8.0,100,0.01,,,1.13,0.000000,,2013-12-09 13:02:00,
2013-12-09 08:42:00,42.0,42.0,-100.00,SSW,196,2.0,6.0,100,0.01,,,1.13,0.000000,,2013-12-09 13:42:00,
2013-12-09 08:52:00,42.0,42.0,-100.00,SSW,196,2.0,6.0,100,0.01,,,1.13,0.000000,,2013-12-09 13:52:00,
2013-12-09 09:02:00,42.0,42.0,-100.00,SSW,196,2.0,6.0,100,0.01,,,1.13,0.000000,,2013-12-09 14:02:00,
2013-12-09 09:42:00,43.0,43.0,-100.00,SE,132,4.0,6.0,100,0.01,,,1.11,17.000000,,2013-12-09 14:42:00,
2013-12-09 09:52:00,43.0,43.0,-100.00,SE,132,4.0,6.0,100,0.01,,,1.11,17.000000,,2013-12-09 14:52:00,
2013-12-09 10:02:00,43.0,43.0,-100.00,SE,132,4.0,6.0,100,0.01,,,1.11,17.000000,,2013-12-09 15:02:00,
2013-12-09 11:43:00,45.0,45.0,-100.00,West,267,3.0,4.0,100,-99.99,,,1.09,115.000000,,2013-12-09 16:43:00,
2013-12-09 11:53:00,45.0,45.0,-100.00,West,267,3.0,4.0,100,-99.99,,,1.09,115.000000,,2013-12-09 16:53:00,
2013-12-09 12:02:00,45.0,45.0,-100.00,West,267,3.0,4.0,100,-99.99,,,1.09,115.000000,,2013-12-09 17:02:00,
2013-12-09 12:42:00,47.0,47.0,-100.00,ESE,109,2.0,4.0,100,0.00,,,1.08,154.000000,,2013-12-09 17:42:00,
2013-12-09 12:53:00,47.0,47.0,-100.00,ESE,109,2.0,4.0,100,0.00,,,1.08,154.000000,,2013-12-09 17:53:00,
2013-12-09 13:02:00,47.0,47.0,-100.00,ESE,109,2.0,4.0,100,0.00,,,1.08,154.000000,,2013-12-09 18:02:00,
2013-12-09 13:43:00,48.0,48.0,-100.00,WNW,298,3.0,5.0,100,0.00,,,1.08,146.000000,,2013-12-09 18:43:00,
2013-12-09 13:53:00,48.0,48.0,-100.00,WNW,298,3.0,5.0,100,0.00,,,1.08,146.000000,,2013-12-09 18:53:00,
2013-12-09 14:03:00,48.0,48.0,-100.00,WNW,298,3.0,5.0,100,0.00,,,1.08,146.000000,,2013-12-09 19:03:00,
2013-12-09 14:43:00,50.0,50.0,-100.00,NNW,330,3.0,7.0,100,0.00,,,0.98,239.000000,,2013-12-09 19:43:00,
2013-12-09 14:53:00,50.0,50.0,-100.00,NNW,330,3.0,7.0,100,0.00,,,0.98,239.000000,,2013-12-09 19:53:00,
2013-12-09 15:02:00,50.0,50.0,-100.00,NNW,330,3.0,7.0,100,0.00,,,0.98,239.000000,,2013-12-09 20:02:00,
2013-12-09 15:42:00,50.0,49.0,-100.00,East,89,1.0,5.0,98,0.00,,,0.93,152.000000,,2013-12-09 20:42:00,
2013-12-09 15:53:00,50.0,49.0,-100.00,East,89,1.0,5.0,98,0.00,,,0.93,152.000000,,2013-12-09 20:53:00,
2013-12-09 16:02:00,50.0,49.0,-100.00,East,89,1.0,5.0,98,0.00,,,0.93,152.000000,,2013-12-09 21:02:00,
2013-12-09 16:44:00,50.0,49.0,-100.00,NE,42,2.0,4.0,97,0.00,,,0.87,80.000000,,2013-12-09 21:44:00,
2013-12-09 16:53:00,50.0,49.0,-100.00,NE,42,2.0,4.0,97,0.00,,,0.87,80.000000,,2013-12-09 21:53:00,
2013-12-09 17:03:00,50.0,49.0,-100.00,NE,42,2.0,4.0,97,0.00,,,0.87,80.000000,,2013-12-09 22:03:00,
2013-12-09 18:43:00,49.0,48.0,-100.00,North,2,3.0,5.0,97,-99.99,,,0.73,4.000000,,2013-12-09 23:43:00,
2013-12-09 18:53:00,49.0,48.0,-100.00,North,2,3.0,5.0,97,-99.99,,,0.73,4.000000,,2013-12-09 23:53:00,
2013-12-09 19:02:00,49.0,48.0,-100.00,North,2,3.0,5.0,97,-99.99,,,0.73,4.000000,,2013-12-10 00:02:00,
2013-12-09 19:42:00,49.0,48.0,-100.00,North,351,2.0,5.0,95,0.00,,,0.65,0.000000,,2013-12-10 00:42:00,
2013-12-09 19:53:00,49.0,48.0,-100.00,North,351,2.0,5.0,95,0.00,,,0.65,0.000000,,2013-12-10 00:53:00,
2013-12-09 20:02:00,49.0,48.0,-100.00,North,351,2.0,5.0,95,0.00,,,0.65,0.000000,,2013-12-10 01:02:00,
2013-12-09 20:42:00,47.0,46.0,-100.00,NNW,332,5.0,8.0,96,0.00,,,0.53,0.000000,,2013-12-10 01:42:00,
2013-12-09 20:52:00,47.0,46.0,-100.00,NNW,332,5.0,8.0,96,0.00,,,0.53,0.000000,,2013-12-10 01:52:00,
2013-12-09 21:02:00,47.0,46.0,-100.00,NNW,332,5.0,8.0,96,0.00,,,0.53,0.000000,,2013-12-10 02:02:00,
2013-12-09 21:42:00,46.0,45.0,-100.00,NW,323,5.0,9.0,97,0.00,,,0.47,0.000000,,2013-12-10 02:42:00,
2013-12-09 21:52:00,46.0,45.0,-100.00,NW,323,5.0,9.0,97,0.00,,,0.47,0.000000,,2013-12-10 02:52:00,
2013-12-09 22:02:00,46.0,45.0,-100.00,NW,323,5.0,9.0,97,0.00,,,0.47,0.000000,,2013-12-10 03:02:00,
2013-12-09 22:43:00,44.0,43.0,-100.00,NE,40,4.0,7.0,96,0.00,,,0.43,0.000000,,2013-12-10 03:43:00,
2013-12-09 22:54:00,44.0,43.0,-100.00,NE,40,4.0,7.0,96,0.00,,,0.43,0.000000,,2013-12-10 03:54:00,
2013-12-09 23:03:00,44.0,43.0,-100.00,NE,40,4.0,7.0,96,0.00,,,0.43,0.000000,,2013-12-10 04:03:00,
2013-12-09 23:43:00,43.0,42.0,-100.00,NE,42,3.0,8.0,96,0.00,,,0.35,0.000000,,2013-12-10 04:43:00,
2013-12-09 23:53:00,43.0,42.0,-100.00,NE,42,3.0,8.0,96,0.00,,,0.35,0.000000,,2013-12-10 04:53:00,